Regional Weather Roundup
Issued by NWS

Home | Current Version | Previous Version | Graphics & Text | Print | Product List | Glossary On
Versions: 1 2 3 4 5 6 7 8 9 10 11 12 13 14 15 16 17 18 19 20 21 22 23 24 25 26 27 28 29 30 31 32 33 34 35 36 37 38 39 40 41 42 43 44 45 46 47 48 49 50
000
ASUS43 KFSD 301210
RWRSD

WEATHER ROUNDUP FOR SOUTH DAKOTA
NATIONAL WEATHER SERVICE SIOUX FALLS SD
700 AM CDT MON MAR 30 2015

NOTE: "FAIR" INDICATES FEW OR NO CLOUDS BELOW 12,000 FEET WITH NO
SIGNIFICANT WEATHER AND/OR OBSTRUCTIONS TO VISIBILITY.


SDZ001>005-009-010-012>017-301300-
NORTHWEST AND NORTH CENTRAL SOUTH DAKOTA

CITY           SKY/WX    TMP DP  RH WIND       PRES   REMARKS
BUFFALO          N/A     41  28  60 NW14      29.91R
FAITH            N/A     46  25  43 W16       29.93S
MOBRIDGE       CLOUDY    38  30  73 E5        29.87S
$$

SDZ012>016-024>037-041>051-057-063-072>074-301300-
SOUTHWEST AND SOUTH CENTRAL SOUTH DAKOTA

CITY           SKY/WX    TMP DP  RH WIND       PRES   REMARKS
RAPID CTY ARPT CLEAR     41  21  44 NW8       30.00R
PIERRE         PTCLDY    40  29  64 CALM      29.92S
CUSTER         PTCLDY    36  17  46 NW7       30.06R
ELLSWORTH AFB  PTCLDY    41  21  45 W8        29.99R
PHILIP         PTCLDY    35  26  69 W13       29.96R WCI  26
PINE RIDGE     CLEAR     32  23  69 W5        30.03R WCI  27
SPEARFISH      FAIR      46  19  34 W10       30.02R
WINNER         FAIR      45  20  36 SW7       29.97S
$$

SDZ004>011-016>023-039-040-301300-
NORTHEAST SOUTH DAKOTA

CITY           SKY/WX    TMP DP  RH WIND       PRES   REMARKS
ABERDEEN       MOCLDY    31  24  75 S9        29.90F WCI  23
WATERTOWN      CLEAR     32  25  75 S8        29.92F WCI  25
SISSETON         N/A     40  31  70 SW6       29.89F
$$

SDZ017-020-022-023-036>040-048>070-301300-
SOUTHEAST SOUTH DAKOTA

CITY           SKY/WX    TMP DP  RH WIND       PRES   REMARKS
SIOUX FALLS    PTCLDY    33  22  63 SW3       30.00F
HURON          PTCLDY    35  24  64 S6        29.93F
CHAMBERLAIN    PTCLDY    37  25  60 S9        29.94F
MITCHELL       CLEAR     40  23  50 S6        29.97F
YANKTON        CLEAR     45  23  42 SW9       30.02F
$$

ABBREVIATIONS USED IN REMARKS
   TC - TEMPERATURE IN CELSIUS
  WCI - WIND CHILL INDEX
   HX - HEAT INDEX
  VSB - VISIBILITY



USA.gov is the U.S. government's official web portal to all federal, state and local government web resources and services.